OV1-4 R/B, 2124

Orbit data source: Space-Track

OV1-4 R/B, 2124 is space debris in LEO originally from a launch on Wed, 30 Mar 1966 UTC launched from the Air Force Western Test Range (AFWTR). Debris objects in space refer to the collection of defunct objects orbiting the Earth. Examples of debris include non-operational satellites, rocket bodies, and fragments generated from explosions, collisions, or faulty payload assembly.

Loading next visibility...
Identifier
2124, 1966-025D
Orbit
LEO
Country
Flag of USUS
Related business
Manufacturer
ABL
Mission
Spacecraft
Bus & Motor
ALTAIR, Unknown motor
Mass
~125 kg wet, ~125 kg dry
Launch date (UTC)
1966-03-30 (60 years ago)
Launch vehicle
Unknown
Launch site
Air Force Western Test Range (AFWTR)
Object type
Payload
Rocket body
Debris
Shape & HBR
Unknown
Radar Cross Section
Medium (>0.1 m² and <1 m²)

Expand to show TLE details & history
Last TLE update: 11 hours ago

TLE from 11 hours ago
0 OV1-4 R/B
1  2124U 66025D   26035.40346948  .00000353  00000-0  70702-4 0  9993
2  2124 144.5100 109.6613 0081209 240.4074 118.8488 13.87821345 33144
Epoch: 2026-02-04T09:40Z
TLE epoch observation values (Epoch: 2026-02-04T09:40:59.763Z)
Latitude
0.00001°
Longitude
-170.15828°
Altitude
964.319 km
Speed
7.357 km/s
True Right ascension
07h 18m 38s
True Declination
0° 00' 00"
Sunlit
Object was in full shadow at epoch
Visualization orbit readout
Latitude
Unknown
Longitude
Unknown
Altitude
Unknown
Speed
Unknown
Apparent Right ascension
Unknown
Apparent Declination
Unknown
Sunlit
N/A
Visualization observer readout
Local Sidereal Time
22:39:27
Azimuth
Unknown
Elevation
Unknown
Doppler factor
Unknown
Orbital elements
Apogee altitude
998.682 km
Perigee altitude
879.835 km
Semi-major axis
7,317.395 km
Eccentricity
0.00812
Inclination
144.51°
RAAN
109.6613°
Arg. of periapsis
240.4074°
True anomaly
119.6599°
Mean anomaly
118.8488°
Eccentric anomaly
119.25475°
Mean motion
3.46744 °/min
Orbital period
103.82 mins
BSTAR
0.000070702
Loading maneuver chart data...
Computing Atmospheric mass density...
Loading historical data...
Loading historical data...
Loading historical data...
Loading historical data...
Loading historical data...
Loading historical data...
Loading historical data...

Documentation

Showing up to 5 results
|